TimeCDT,TemperatureF,Dew PointF,Humidity,Sea Level PressureIn,VisibilityMPH,Wind Direction,Wind SpeedMPH,Gust SpeedMPH,PrecipitationIn,Events,Conditions,WindDirDegrees,DateUTC
12:54 AM,59.0,53.1,81,30.12,10.0,Calm,Calm,-,N/A,,Clear,0,2012-09-10 05:54:00
1:54 AM,60.1,53.1,78,30.12,10.0,NNE,5.8,-,N/A,,Clear,20,2012-09-10 06:54:00
2:54 AM,59.0,53.1,81,30.12,10.0,NNE,3.5,-,N/A,,Clear,30,2012-09-10 07:54:00
3:54 AM,57.9,53.1,84,30.13,10.0,NE,3.5,-,N/A,,Clear,40,2012-09-10 08:54:00
4:54 AM,55.9,53.1,90,30.14,10.0,Calm,Calm,-,N/A,,Clear,0,2012-09-10 09:54:00
5:54 AM,55.9,53.1,90,30.16,10.0,NE,3.5,-,N/A,,Clear,40,2012-09-10 10:54:00
6:54 AM,57.0,53.1,87,30.19,10.0,Calm,Calm,-,N/A,,Clear,0,2012-09-10 11:54:00
7:54 AM,62.1,54.0,75,30.20,10.0,NE,5.8,-,N/A,,Clear,50,2012-09-10 12:54:00
8:54 AM,66.0,55.0,68,30.20,10.0,NE,3.5,-,N/A,,Clear,50,2012-09-10 13:54:00
9:54 AM,70.0,55.9,61,30.22,10.0,Calm,Calm,-,N/A,,Clear,0,2012-09-10 14:54:00
10:54 AM,73.0,54.0,51,30.21,10.0,Variable,3.5,-,N/A,,Clear,0,2012-09-10 15:54:00
11:54 AM,77.0,53.1,43,30.20,10.0,ENE,5.8,-,N/A,,Clear,70,2012-09-10 16:54:00
12:54 PM,78.1,53.1,42,30.19,10.0,SE,3.5,-,N/A,,Scattered Clouds,130,2012-09-10 17:54:00
1:54 PM,78.1,51.1,39,30.17,10.0,North,5.8,-,N/A,,Partly Cloudy,350,2012-09-10 18:54:00
2:54 PM,80.1,51.1,36,30.15,10.0,Calm,Calm,-,N/A,,Clear,0,2012-09-10 19:54:00
3:54 PM,80.1,52.0,38,30.14,10.0,Variable,6.9,-,N/A,,Partly Cloudy,0,2012-09-10 20:54:00
4:54 PM,79.0,50.0,36,30.13,10.0,Calm,Calm,-,N/A,,Clear,0,2012-09-10 21:54:00
5:54 PM,79.0,50.0,36,30.13,10.0,Calm,Calm,-,N/A,,Clear,0,2012-09-10 22:54:00
6:54 PM,75.0,52.0,44,30.12,10.0,Calm,Calm,-,N/A,,Clear,0,2012-09-10 23:54:00
7:54 PM,71.1,53.1,53,30.13,10.0,Calm,Calm,-,N/A,,Clear,0,2012-09-11 00:54:00
8:54 PM,63.0,55.9,78,30.15,10.0,Calm,Calm,-,N/A,,Clear,0,2012-09-11 01:54:00
9:54 PM,62.1,55.9,80,30.15,10.0,Calm,Calm,-,N/A,,Clear,0,2012-09-11 02:54:00
10:54 PM,61.0,55.9,83,30.15,10.0,Calm,Calm,-,N/A,,Clear,0,2012-09-11 03:54:00
11:54 PM,59.0,55.0,87,30.16,10.0,Calm,Calm,-,N/A,,Clear,0,2012-09-11 04:54:00